Tracking 32579 objects as of 16-Dec-2025
HD Live streaming from Space Station
objects crossing your sky now

MOLNIYA 3-47

Track MOLNIYA 3-47 now!
MOLNIYA 3-47 is classified as:


NORAD ID: 23642
Int'l Code: 1995-042A
Perigee: 2,132.0 km
Apogee: 37,998.6 km
Inclination: 65.0 °
Period: 713.0 minutes
Semi major axis: 26436 km
RCS: 13.479 m2 (large)
Launch date: August 9, 1995
Source: Commonwealth of Independent States (former USSR) (CIS)
Launch site: PLESETSK MISSILE AND SPACE COMPLEX (PKMTR)
Your satellite tracking list
Your tracking list is empty




NASA's NSSDC Master Catalog

Two Line Element Set (TLE):
1 23642U 95042A   25346.34178415 -.00001101  00000-0  00000-0 0  9994
2 23642  64.9583 287.8482 6783580 271.6831  18.1294  2.01976805222748
Source of the keplerian elements: AFSPC